Weather Roundup
Issued by NWS Corpus Christi, TX

Home | Current Version | Previous Version | Text Only | Print | Product List | Glossary On
Versions: 1 2 3 4 5 6 7 8 9 10 11 12 13 14 15 16 17 18 19 20 21 22 23 24 25 26 27 28 29 30 31 32 33 34 35 36 37 38 39 40 41 42 43 44 45 46 47 48 49 50
000
ASUS44 KCRP 290510
HRRCRP

SOUTH TEXAS REGIONAL WEATHER ROUNDUP
NATIONAL WEATHER SERVICE CORPUS CHRISTI TX
1200 AM CDT WED JUL 29 2015


TXZ229>244-290600-
...CORPUS CHRISTI AREA OBSERVATIONS...

CITY           SKY/WX    TMP DP  RH WIND       PRES   REMARKS
CORPUS CHRISTI CLEAR     82  76  81 S14       29.97R
NAS CORPUS CHR CLEAR     82  78  88 S13G23    29.97R HX  91
ROCKPORT       CLEAR     83  77  82 S12G18    29.97R HX  92
KINGSVILLE NAS CLEAR     82  79  90 SE14      29.97R HX  92
ALICE          CLEAR     80  76  87 SE9       29.97R
FALFURRIAS     CLEAR     81  75  83 SE10      29.97R
$$

...VICTORIA AREA OBSERVATIONS...

CITY           SKY/WX    TMP DP  RH WIND       PRES   REMARKS
VICTORIA       CLEAR     79  77  94 SE7       30.00R
BEEVILLE       FAIR      78  78  98 SE5       29.98R
PLEASANTON     CLEAR     81  72  74 SE8       29.98R
SAN ANTONIO    CLEAR     83  70  64 SE12      30.00R
$$

...LAREDO AREA OBSERVATIONS...

CITY           SKY/WX    TMP DP  RH WIND       PRES   REMARKS
LAREDO         CLEAR     87  69  54 SE20      29.96R HX  91
COTULLA        CLEAR     85  73  67 SE16      29.95R HX  91
DEL RIO        CLEAR     89  63  41 E9        29.91R HX  90
MCALLEN        CLOUDY    86  77  74 SE15G24   29.97R HX  97
HEBBRONVILLE     N/A     80  70  70 SE9       29.99R
$$

...OTHER TEXAS OBSERVATIONS...

CITY           SKY/WX    TMP DP  RH WIND       PRES   REMARKS
BROWNSVILLE    CLEAR     83  79  88 SE13      29.98R HX  94
HOUSTON        PTCLDY    83  76  79 S7        29.99R HX  91
COL. STATION   CLEAR     84  74  71 S14       29.98R HX  91
AUSTIN         CLEAR     80  72  76 S10       29.99R
WACO           CLEAR     87  68  52 S12       29.97R HX  90
FORT WORTH     CLEAR     88  63  43 S10       29.95R
WICHITA FALLS  CLEAR     79  66  64 SE7       29.96R
LUBBOCK        MOCLDY    79  63  57 N23G29    30.10R
EL PASO        TSTM      73  65  75 W14       30.14F
$$

...MARINE OBSERVATIONS...

STATION/POSITION TIME  SKY/WX   TEMP    WIND        PRES    VSBY  WAVE   SWELL
                                AIR SEA DIR/SP/G                  HT/PER HT/PER
                 (UTC)          (F)     (DEG/KT/KT) (MB)    (MI)  (FT/S) (FT/S)
PORT ARANSAS     0500            82 84  150/ 13/ 14 1015.7R
BUOY 90 E PORT A 0450            86 86  160/ 14/ 16 1015.4R         3/ 6
BUOY 45 SE BAFFI 0450            84 83  160/ 17/ 19 1014.4R         4/ 5
BUOY 200 E PT IS 0450            86 86  160/ 10/ 12 1016.7S         2/ 5   2/ 5
BUOY 15 E GALVES 0450            86 86  190/ 12/ 14 1014.9F         2/ 6
$$


USA.gov is the U.S. government's official web portal to all federal, state and local government web resources and services.